{"data":{"norad_id":57388,"epoch":"2026-05-25T04:54:53.664192Z","epoch_age_seconds":71541,"freshness":"FRESH","line1":"1 57388U 23100C   26145.20478778  .00001592  00000+0  11364-3 0  9992","line2":"2 57388  99.5135 158.1974 0005197   6.3294 353.7992 15.06584667156442","mean_motion":15.06584667,"eccentricity":0.0005197,"inclination_deg":99.5135,"raan_deg":158.1974,"arg_perigee_deg":6.3294,"mean_anomaly_deg":353.7992,"bstar":0.00011364,"rev_number":15644,"period_min":95.580423161176,"perigee_km":543.04682845547,"apogee_km":550.2444475294,"semimajor_km":6924.7826379924,"source":"CELESTRAK","updated_at":"2026-05-25T13:38:00.036942Z"}}